Location: Unspecified
(49.2020°N, 0.0000°E)
Time: 03:59:55
(UTC+00:00)

Oscar 17 - Visible Passes

Search period start: 04 April 2026 00:00
Search period end: 14 April 2026 00:00
Orbit: 769 x 785 km, 98.9° (Epoch: 29 March)

Date Brightness Start Highest point End Pass type
(mag) Time Alt. Az. Time Alt. Az. Time Alt. Az.
4 Apr 12.8 19:39:22 10° SSW 19:43:40 27° W 19:47:59 10° NW visible
5 Apr 11.6 19:05:06 10° S 19:10:04 51° W 19:15:02 10° NNW visible
6 Apr 13.5 20:13:41 10° WSW 20:16:29 15° W 20:19:18 10° NW visible
7 Apr 12.8 19:38:23 10° SSW 19:42:42 28° W 19:47:04 10° NW visible
8 Apr 11.6 19:04:09 10° S 19:09:07 52° W 19:14:07 10° NNW visible
9 Apr 13.4 20:12:37 10° WSW 20:15:31 15° W 20:18:26 10° NW visible
10 Apr 12.7 19:37:23 10° SSW 19:41:45 28° W 19:46:09 10° NW visible
12 Apr 13.4 20:11:34 10° SW 20:14:33 16° W 20:17:34 10° NW visible
13 Apr 12.7 19:36:23 10° SSW 19:40:48 29° W 19:45:15 10° NW visible
